QPF
0.00 0.00 0.00 0.00 0.00 0.00 0.00 0.00 0.00 0.00 0.00 0.00 0.00 0.00 0.00 0.00 0.00 0.00 0.00 0.00 0.00 0.00 0.00 0.00 0.00 0.00 0.00 0.00 0.01 0.05 0.07 0.06 0.07 0.07 0.09 0.09 0.08 0.08 0.06 0.04 0.04 0.04 0.03 0.03
0.00 0.00 0.00 0.00 0.00 0.00 0.00 0.00 0.00 0.00 0.00 0.00 0.00 0.00 0.00 0.00 0.00 0.00 0.00 0.00 0.00 0.00 0.00 0.00 0.00 0.00 0.00 0.00 0.02 0.04 0.04 0.05 0.07 0.08 0.09 0.10 0.11 0.12 0.10 0.07 0.06 0.04 0.04 0.04
0.00 0.00 0.00 0.00 0.00 0.00 0.00 0.00 0.00 0.00 0.00 0.00 0.00 0.00 0.00 0.00 0.00 0.00 0.00 0.00 0.00 0.00 0.00 0.00 0.00 0.00 0.00 0.01 0.02 0.03 0.05 0.04 0.05 0.07 0.08 0.09 0.12 0.15 0.15 0.12 0.11 0.08 0.06 0.05
0.00 0.00 0.00 0.00 0.00 0.00 0.00 0.00 0.00 0.00 0.00 0.00 0.00 0.00 0.01 0.02 0.01 0.00 0.00 0.00 0.00 0.00 0.00 0.00 0.00 0.00 0.01 0.01 0.02 0.03 0.04 0.04 0.04 0.06 0.08 0.09 0.09 0.12 0.15 0.14 0.13 0.11 0.09 0.08
0.00 0.00 0.00 0.00 0.00 0.00 0.00 0.00 0.00 0.00 0.00 0.00 0.00 0.00 0.01 0.03 0.04 0.01 0.00 0.00 0.00 0.00 0.00 0.00 0.00 0.00 0.01 0.01 0.02 0.04 0.05 0.05 0.04 0.05 0.08 0.11 0.10 0.13 0.15 0.15 0.15 0.13 0.11 0.08
0.00 0.00 0.00 0.00 0.00 0.00 0.00 0.00 0.00 0.00 0.00 0.00 0.00 0.00 0.01 0.03 0.03 0.02 0.00 0.00 0.00 0.00 0.00 0.00 0.00 0.00 0.00 0.00 0.02 0.05 0.05 0.05 0.05 0.04 0.07 0.11 0.10 0.14 0.17 0.17 0.14 0.12 0.10 0.09
0.00 0.00 0.00 0.00 0.00 0.00 0.00 0.00 0.00 0.00 0.00 0.00 0.00 0.00 0.01 0.01 0.00 0.00 0.00 0.00 0.00 0.00 0.00 0.00 0.00 0.00 0.00 0.00 0.01 0.03 0.05 0.07 0.06 0.05 0.06 0.09 0.09 0.12 0.13 0.13 0.12 0.11 0.10 0.10
0.00 0.00 0.00 0.00 0.00 0.00 0.00 0.00 0.00 0.00 0.00 0.00 0.00 0.00 0.00 0.00 0.00 0.00 0.00 0.00 0.00 0.00 0.00 0.00 0.00 0.00 0.00 0.00 0.00 0.01 0.02 0.04 0.03 0.04 0.05 0.06 0.07 0.09 0.10 0.12 0.12 0.14 0.12 0.09
0.00 0.00 0.00 0.00 0.00 0.00 0.00 0.00 0.00 0.00 0.00 0.00 0.00 0.00 0.00 0.00 0.00 0.00 0.00 0.00 0.00 0.00 0.00 0.00 0.00 0.00 0.00 0.00 0.00 0.00 0.01 0.01 0.02 0.02 0.03 0.05 0.06 0.07 0.09 0.10 0.11 0.12 0.13 0.10
0.00 0.00 0.00 0.00 0.00 0.00 0.00 0.00 0.00 0.00 0.00 0.00 0.01 0.01 0.00 0.00 0.00 0.00 0.00 0.00 0.01 0.00 0.00 0.00 0.00 0.00 0.00 0.00 0.01 0.00 0.01 0.01 0.02 0.03 0.04 0.06 0.07 0.07 0.08 0.08 0.10 0.12 0.12 0.12
0.00 0.00 0.00 0.00 0.00 0.00 0.00 0.00 0.00 0.00 0.00 0.00 0.00 0.01 0.01 0.00 0.00 0.00 0.00 0.00 0.01 0.00 0.00 0.00 0.00 0.00 0.00 0.00 0.00 0.00 0.00 0.02 0.03 0.03 0.04 0.04 0.06 0.06 0.05 0.06 0.07 0.08 0.09 0.09
0.00 0.00 0.00 0.00 0.00 0.00 0.00 0.00 0.00 0.00 0.00 0.00 0.00 0.00 0.00 0.01 0.00 0.00 0.00 0.01 0.02 0.03 0.01 0.00 0.00 0.00 0.00 0.00 0.01 0.01 0.02 0.02 0.03 0.04 0.03 0.04 0.05 0.05 0.04 0.04 0.06 0.06 0.07 0.06
0.00 0.00 0.00 0.00 0.00 0.00 0.00 0.00 0.00 0.00 0.00 0.00 0.00 0.00 0.00 0.00 0.00 0.00 0.00 0.00 0.01 0.01 0.00 0.00 0.00 0.00 0.00 0.00 0.00 0.01 0.01 0.01 0.01 0.03 0.03 0.04 0.04 0.05 0.05 0.05 0.05 0.05 0.05 0.07
0.00 0.00 0.00 0.00 0.00 0.00 0.00 0.00 0.00 0.00 0.00 0.00 0.00 0.00 0.00 0.00 0.00 0.00 0.00 0.00 0.00 0.00 0.00 0.02 0.01 0.00 0.00 0.00 0.00 0.00 0.00 0.00 0.01 0.01 0.02 0.04 0.04 0.03 0.04 0.04 0.04 0.04 0.05 0.06
0.00 0.00 0.00 0.00 0.00 0.00 0.00 0.00 0.00 0.00 0.00 0.00 0.00 0.00 0.00 0.00 0.00 0.00 0.00 0.00 0.00 0.00 0.00 0.01 0.01 0.00 0.00 0.00 0.00 0.00 0.00 0.01 0.01 0.02 0.03 0.04 0.03 0.03 0.02 0.03 0.05 0.05 0.05 0.05
0.00 0.00 0.00 0.00 0.00 0.00 0.00 0.00 0.00 0.00 0.00 0.00 0.00 0.00 0.00 0.00 0.00 0.00 0.00 0.00 0.00 0.00 0.00 0.01 0.01 0.01 0.00 0.00 0.00 0.00 0.00 0.00 0.01 0.02 0.03 0.05 0.05 0.04 0.03 0.03 0.04 0.04 0.04 0.05
0.00 0.00 0.00 0.00 0.00 0.00 0.00 0.00 0.00 0.00 0.00 0.00 0.00 0.00 0.00 0.00 0.00 0.00 0.00 0.00 0.00 0.00 0.01 0.01 0.00 0.01 0.03 0.02 0.01 0.01 0.01 0.01 0.01 0.01 0.02 0.04 0.06 0.05 0.03 0.03 0.04 0.04 0.04 0.05
0.00 0.00 0.00 0.00 0.00 0.00 0.00 0.00 0.00 0.00 0.00 0.00 0.00 0.00 0.01 0.01 0.00 0.00 0.00 0.00 0.00 0.00 0.00 0.01 0.01 0.01 0.01 0.01 0.02 0.02 0.02 0.01 0.02 0.03 0.04 0.05 0.04 0.03 0.04 0.04 0.04 0.05 0.06 0.07
0.00 0.00 0.00 0.00 0.00 0.00 0.00 0.00 0.00 0.00 0.00 0.00 0.00 0.01 0.04 0.00 0.00 0.00 0.00 0.00 0.00 0.00 0.00 0.00 0.01 0.01 0.01 0.01 0.01 0.01 0.02 0.02 0.02 0.03 0.05 0.07 0.06 0.05 0.04 0.04 0.05 0.05 0.05 0.07
0.00 0.00 0.00 0.00 0.00 0.00 0.00 0.00 0.00 0.00 0.00 0.00 0.00 0.00 0.01 0.00 0.01 0.01 0.00 0.00 0.00 0.00 0.00 0.00 0.00 0.01 0.01 0.01 0.01 0.01 0.03 0.03 0.03 0.03 0.04 0.06 0.06 0.06 0.06 0.06 0.05 0.05 0.04 0.05
0.00 0.00 0.00 0.00 0.00 0.01 0.00 0.00 0.00 0.00 0.03 0.01 0.00 0.01 0.01 0.01 0.02 0.01 0.00 0.00 0.00 0.01 0.01 0.01 0.02 0.02 0.02 0.02 0.02 0.02 0.03 0.04 0.04 0.03 0.03 0.04 0.04 0.05 0.05 0.04 0.04 0.04 0.03 0.03
0.00 0.00 0.00 0.00 0.00 0.02 0.01 0.00 0.01 0.02 0.01 0.00 0.01 0.00 0.00 0.00 0.00 0.00 0.00 0.00 0.00 0.01 0.01 0.02 0.02 0.02 0.03 0.04 0.03 0.03 0.03 0.03 0.03 0.03 0.02 0.03 0.04 0.04 0.04 0.03 0.02 0.02 0.02 0.03
0.01 0.01 0.01 0.01 0.02 0.01 0.01 0.01 0.01 0.00 0.00 0.00 0.00 0.00 0.00 0.00 0.00 0.01 0.01 0.01 0.01 0.01 0.01 0.01 0.02 0.02 0.03 0.03 0.03 0.03 0.03 0.03 0.02 0.01 0.01 0.02 0.03 0.03 0.04 0.04 0.04 0.03 0.03 0.03
0.02 0.01 0.01 0.01 0.02 0.02 0.02 0.03 0.02 0.01 0.00 0.00 0.00 0.00 0.00 0.01 0.01 0.01 0.01 0.01 0.01 0.01 0.01 0.02 0.02 0.02 0.02 0.02 0.01 0.02 0.02 0.02 0.01 0.01 0.02 0.03 0.04 0.04 0.04 0.04 0.04 0.04 0.05 0.04
0.01 0.01 0.00 0.01 0.02 0.03 0.04 0.05 0.02 0.01 0.00 0.00 0.00 0.00 0.01 0.01 0.01 0.01 0.01 0.01 0.01 0.01 0.02 0.02 0.02 0.02 0.02 0.01 0.01 0.01 0.01 0.02 0.02 0.02 0.03 0.04 0.03 0.02 0.03 0.05 0.05 0.05 0.06 0.05
0.01 0.01 0.01 0.03 0.02 0.02 0.02 0.02 0.02 0.01 0.00 0.00 0.01 0.01 0.01 0.01 0.01 0.01 0.01 0.01 0.01 0.02 0.02 0.03 0.03 0.03 0.02 0.02 0.01 0.01 0.02 0.02 0.02 0.02 0.04 0.03 0.02 0.01 0.01 0.02 0.03 0.03 0.03 0.04
MSLP
1009.74 1010.12 1010.34 1010.42 1010.40 1010.33 1010.23 1010.14 1010.04 1009.90 1009.71 1009.45 1009.11 1008.73 1008.34 1008.02 1007.81 1007.78 1007.94 1008.29 1008.79 1009.40 1010.05 1010.66 1011.22 1011.68 1012.07 1012.40 1012.71 1013.04 1013.41 1013.83 1014.29 1014.77 1015.24 1015.66 1016.02 1016.31 1016.52 1016.69 1016.83 1016.96 1017.10 1017.26
1010.25 1010.45 1010.50 1010.44 1010.34 1010.26 1010.22 1010.24 1010.29 1010.30 1010.24 1010.05 1009.72 1009.28 1008.78 1008.31 1007.95 1007.78 1007.84 1008.14 1008.63 1009.27 1009.97 1010.65 1011.26 1011.75 1012.14 1012.45 1012.72 1013.00 1013.32 1013.69 1014.12 1014.57 1015.02 1015.43 1015.78 1016.06 1016.27 1016.43 1016.58 1016.74 1016.92 1017.13
1010.61 1010.63 1010.50 1010.32 1010.16 1010.09 1010.15 1010.31 1010.52 1010.71 1010.77 1010.66 1010.35 1009.85 1009.23 1008.60 1008.08 1007.75 1007.68 1007.90 1008.37 1009.03 1009.78 1010.53 1011.20 1011.75 1012.16 1012.47 1012.72 1012.95 1013.22 1013.54 1013.92 1014.34 1014.76 1015.15 1015.48 1015.74 1015.94 1016.11 1016.28 1016.46 1016.69 1016.96
1010.80 1010.64 1010.38 1010.11 1009.93 1009.92 1010.09 1010.42 1010.83 1011.18 1011.39 1011.35 1011.04 1010.47 1009.72 1008.92 1008.21 1007.70 1007.50 1007.61 1008.04 1008.70 1009.50 1010.31 1011.06 1011.67 1012.14 1012.47 1012.71 1012.93 1013.15 1013.43 1013.76 1014.13 1014.51 1014.87 1015.18 1015.43 1015.63 1015.80 1015.98 1016.20 1016.46 1016.78
1010.79 1010.51 1010.16 1009.86 1009.72 1009.81 1010.14 1010.65 1011.25 1011.78 1012.11 1012.14 1011.82 1011.17 1010.29 1009.31 1008.40 1007.71 1007.34 1007.34 1007.70 1008.34 1009.17 1010.04 1010.87 1011.56 1012.09 1012.46 1012.73 1012.93 1013.14 1013.38 1013.67 1014.00 1014.34 1014.67 1014.95 1015.19 1015.38 1015.56 1015.76 1015.99 1016.28 1016.62
1010.61 1010.26 1009.89 1009.62 1009.57 1009.80 1010.30 1011.01 1011.79 1012.48 1012.92 1013.00 1012.67 1011.94 1010.93 1009.78 1008.68 1007.80 1007.26 1007.13 1007.40 1008.01 1008.84 1009.76 1010.65 1011.41 1012.02 1012.45 1012.76 1012.98 1013.19 1013.41 1013.67 1013.96 1014.27 1014.57 1014.83 1015.05 1015.24 1015.42 1015.61 1015.85 1016.14 1016.49
1010.27 1009.92 1009.60 1009.42 1009.51 1009.90 1010.57 1011.46 1012.40 1013.21 1013.74 1013.86 1013.50 1012.71 1011.59 1010.29 1009.02 1007.97 1007.27 1007.01 1007.18 1007.73 1008.54 1009.48 1010.42 1011.26 1011.93 1012.44 1012.80 1013.06 1013.27 1013.49 1013.73 1014.00 1014.28 1014.55 1014.80 1015.01 1015.19 1015.36 1015.54 1015.77 1016.06 1016.39
1009.83 1009.54 1009.32 1009.27 1009.50 1010.05 1010.88 1011.90 1012.95 1013.85 1014.43 1014.57 1014.20 1013.37 1012.16 1010.77 1009.38 1008.20 1007.37 1006.98 1007.05 1007.52 1008.30 1009.24 1010.20 1011.08 1011.82 1012.39 1012.81 1013.12 1013.36 1013.59 1013.83 1014.08 1014.34 1014.60 1014.82 1015.02 1015.19 1015.34 1015.52 1015.72 1015.99 1016.30
1009.34 1009.16 1009.06 1009.16 1009.52 1010.18 1011.11 1012.21 1013.31 1014.24 1014.83 1014.98 1014.61 1013.77 1012.54 1011.11 1009.67 1008.41 1007.50 1007.02 1006.99 1007.39 1008.10 1009.01 1009.97 1010.88 1011.67 1012.30 1012.78 1013.14 1013.43 1013.67 1013.92 1014.16 1014.41 1014.65 1014.86 1015.04 1015.19 1015.34 1015.49 1015.68 1015.91 1016.19
1008.87 1008.82 1008.85 1009.07 1009.53 1010.25 1011.20 1012.28 1013.35 1014.25 1014.82 1014.96 1014.61 1013.79 1012.61 1011.22 1009.80 1008.55 1007.60 1007.07 1006.98 1007.30 1007.95 1008.80 1009.74 1010.66 1011.48 1012.16 1012.70 1013.11 1013.44 1013.72 1013.97 1014.22 1014.46 1014.68 1014.88 1015.04 1015.18 1015.31 1015.45 1015.61 1015.82 1016.07
1008.49 1008.57 1008.72 1009.02 1009.51 1010.21 1011.09 1012.07 1013.03 1013.83 1014.34 1014.45 1014.13 1013.39 1012.32 1011.04 1009.73 1008.55 1007.65 1007.11 1006.98 1007.24 1007.81 1008.61 1009.51 1010.42 1011.25 1011.97 1012.56 1013.02 1013.40 1013.71 1013.98 1014.23 1014.46 1014.67 1014.86 1015.01 1015.15 1015.27 1015.40 1015.56 1015.75 1015.99
1008.25 1008.46 1008.70 1009.03 1009.48 1010.08 1010.81 1011.61 1012.39 1013.03 1013.44 1013.53 1013.25 1012.62 1011.71 1010.61 1009.47 1008.43 1007.62 1007.13 1006.99 1007.20 1007.71 1008.44 1009.29 1010.16 1011.00 1011.75 1012.38 1012.90 1013.32 1013.67 1013.96 1014.22 1014.45 1014.65 1014.83 1014.98 1015.12 1015.25 1015.39 1015.55 1015.75 1015.99
1008.21 1008.52 1008.81 1009.12 1009.49 1009.93 1010.45 1011.01 1011.55 1012.00 1012.29 1012.34 1012.11 1011.62 1010.89 1010.01 1009.09 1008.24 1007.56 1007.14 1007.02 1007.19 1007.64 1008.30 1009.09 1009.93 1010.76 1011.53 1012.20 1012.77 1013.24 1013.62 1013.94 1014.21 1014.44 1014.64 1014.82 1014.99 1015.14 1015.30 1015.47 1015.66 1015.89 1016.15
1008.37 1008.76 1009.08 1009.34 1009.58 1009.83 1010.10 1010.39 1010.68 1010.93 1011.08 1011.09 1010.92 1010.56 1010.04 1009.39 1008.70 1008.06 1007.53 1007.19 1007.09 1007.24 1007.63 1008.22 1008.95 1009.75 1010.56 1011.34 1012.05 1012.67 1013.18 1013.61 1013.96 1014.24 1014.48 1014.69 1014.89 1015.07 1015.26 1015.47 1015.69 1015.93 1016.20 1016.51
1008.72 1009.16 1009.49 1009.69 1009.80 1009.85 1009.87 1009.91 1009.95 1010.00 1010.02 1009.99 1009.88 1009.66 1009.32 1008.90 1008.43 1007.98 1007.59 1007.34 1007.26 1007.38 1007.71 1008.22 1008.88 1009.63 1010.43 1011.21 1011.95 1012.61 1013.17 1013.64 1014.02 1014.33 1014.60 1014.83 1015.04 1015.27 1015.51 1015.77 1016.06 1016.37 1016.71 1017.06
1009.20 1009.68 1010.00 1010.14 1010.14 1010.02 1009.84 1009.65 1009.49 1009.37 1009.29 1009.23 1009.16 1009.05 1008.89 1008.65 1008.37 1008.07 1007.80 1007.60 1007.52 1007.61 1007.87 1008.30 1008.89 1009.59 1010.36 1011.15 1011.91 1012.61 1013.22 1013.73 1014.15 1014.49 1014.78 1015.04 1015.30 1015.57 1015.87 1016.21 1016.57 1016.96 1017.37 1017.77
1009.73 1010.24 1010.55 1010.65 1010.55 1010.31 1009.99 1009.64 1009.33 1009.10 1008.95 1008.87 1008.85 1008.83 1008.79 1008.70 1008.55 1008.36 1008.16 1007.99 1007.90 1007.93 1008.12 1008.47 1008.99 1009.63 1010.37 1011.16 1011.94 1012.67 1013.32 1013.87 1014.32 1014.70 1015.03 1015.32 1015.63 1015.96 1016.32 1016.73 1017.18 1017.65 1018.12 1018.57
1010.23 1010.73 1011.04 1011.11 1010.98 1010.68 1010.28 1009.85 1009.47 1009.18 1009.00 1008.92 1008.93 1008.98 1009.03 1009.03 1008.97 1008.85 1008.68 1008.51 1008.38 1008.35 1008.46 1008.73 1009.17 1009.76 1010.46 1011.23 1012.02 1012.77 1013.45 1014.04 1014.53 1014.94 1015.30 1015.64 1015.99 1016.38 1016.81 1017.29 1017.81 1018.34 1018.87 1019.36
1010.61 1011.10 1011.40 1011.47 1011.33 1011.03 1010.62 1010.19 1009.80 1009.50 1009.33 1009.28 1009.32 1009.41 1009.51 1009.56 1009.55 1009.45 1009.28 1009.09 1008.92 1008.82 1008.86 1009.06 1009.43 1009.96 1010.63 1011.38 1012.16 1012.92 1013.62 1014.24 1014.76 1015.20 1015.59 1015.97 1016.36 1016.79 1017.28 1017.82 1018.39 1018.98 1019.54 1020.07
1010.86 1011.31 1011.59 1011.67 1011.56 1011.30 1010.94 1010.55 1010.21 1009.95 1009.82 1009.80 1009.87 1009.99 1010.12 1010.19 1010.19 1010.09 1009.91 1009.69 1009.48 1009.34 1009.31 1009.45 1009.76 1010.25 1010.87 1011.60 1012.36 1013.12 1013.83 1014.46 1015.00 1015.46 1015.88 1016.28 1016.71 1017.17 1017.69 1018.27 1018.88 1019.50 1020.09 1020.63
1010.97 1011.36 1011.61 1011.71 1011.64 1011.45 1011.17 1010.87 1010.61 1010.42 1010.34 1010.36 1010.46 1010.60 1010.73 1010.81 1010.80 1010.70 1010.51 1010.28 1010.04 1009.86 1009.80 1009.90 1010.17 1010.61 1011.19 1011.89 1012.63 1013.37 1014.07 1014.70 1015.25 1015.73 1016.16 1016.58 1017.02 1017.51 1018.05 1018.65 1019.27 1019.90 1020.50 1021.04
1010.99 1011.31 1011.53 1011.64 1011.62 1011.50 1011.32 1011.12 1010.95 1010.84 1010.82 1010.88 1011.00 1011.15 1011.28 1011.35 1011.34 1011.23 1011.04 1010.81 1010.57 1010.39 1010.31 1010.39 1010.63 1011.04 1011.59 1012.24 1012.95 1013.67 1014.35 1014.96 1015.51 1015.99 1016.43 1016.86 1017.32 1017.81 1018.35 1018.95 1019.57 1020.20 1020.79 1021.32
1011.00 1011.24 1011.43 1011.54 1011.57 1011.52 1011.43 1011.33 1011.25 1011.21 1011.24 1011.33 1011.46 1011.60 1011.72 1011.78 1011.76 1011.66 1011.49 1011.27 1011.06 1010.89 1010.83 1010.90 1011.13 1011.51 1012.02 1012.63 1013.30 1013.98 1014.63 1015.23 1015.77 1016.25 1016.69 1017.13 1017.58 1018.08 1018.62 1019.20 1019.81 1020.42 1020.99 1021.51
1011.05 1011.23 1011.38 1011.50 1011.57 1011.59 1011.57 1011.55 1011.54 1011.55 1011.61 1011.71 1011.83 1011.96 1012.05 1012.10 1012.08 1011.99 1011.84 1011.66 1011.48 1011.35 1011.31 1011.40 1011.62 1011.97 1012.45 1013.02 1013.64 1014.27 1014.89 1015.46 1015.99 1016.47 1016.92 1017.36 1017.82 1018.32 1018.85 1019.42 1020.01 1020.60 1021.16 1021.66
1011.20 1011.33 1011.47 1011.59 1011.69 1011.76 1011.81 1011.84 1011.87 1011.91 1011.98 1012.06 1012.15 1012.24 1012.31 1012.33 1012.30 1012.22 1012.10 1011.96 1011.83 1011.74 1011.73 1011.83 1012.04 1012.37 1012.81 1013.32 1013.89 1014.47 1015.05 1015.60 1016.12 1016.61 1017.07 1017.54 1018.01 1018.51 1019.05 1019.61 1020.19 1020.76 1021.30 1021.80
1011.46 1011.57 1011.70 1011.84 1011.97 1012.08 1012.16 1012.23 1012.27 1012.32 1012.36 1012.40 1012.45 1012.48 1012.50 1012.49 1012.44 1012.36 1012.26 1012.16 1012.06 1012.01 1012.03 1012.13 1012.33 1012.63 1013.02 1013.47 1013.98 1014.52 1015.06 1015.60 1016.11 1016.61 1017.11 1017.60 1018.11 1018.64 1019.19 1019.76 1020.33 1020.90 1021.43 1021.92
Thickness
5847 5836 5833 5847 5860 5862 5863 5859 5856 5862 5874 5864 5858 5858 5865 5871 5866 5859 5853 5846 5838 5833 5833 5829 5823 5817 5809 5802 5796 5790 5785 5781 5776 5771 5766 5762 5760 5760 5759 5758 5756 5754 5753 5753
5833 5829 5850 5865 5864 5859 5856 5852 5855 5864 5872 5862 5857 5858 5869 5870 5866 5863 5856 5848 5841 5835 5830 5826 5820 5815 5809 5802 5796 5791 5787 5783 5778 5774 5770 5766 5763 5761 5761 5760 5758 5755 5754 5753
5826 5845 5860 5854 5849 5844 5847 5849 5855 5856 5863 5866 5856 5846 5854 5865 5869 5866 5862 5856 5849 5840 5831 5824 5819 5815 5810 5803 5798 5794 5789 5784 5780 5776 5772 5768 5764 5761 5759 5758 5757 5756 5755 5753
5835 5853 5851 5844 5842 5844 5836 5859 5857 5853 5844 5842 5853 5824 5840 5848 5851 5857 5858 5856 5851 5846 5837 5828 5822 5816 5811 5806 5801 5796 5790 5786 5781 5777 5771 5766 5761 5757 5757 5757 5757 5756 5755 5754
5831 5844 5840 5834 5843 5849 5847 5861 5854 5849 5842 5836 5848 5833 5831 5846 5836 5848 5856 5857 5855 5850 5842 5832 5826 5819 5815 5810 5803 5797 5791 5785 5781 5777 5773 5767 5763 5761 5760 5758 5756 5754 5754 5754
5838 5855 5850 5846 5855 5857 5855 5849 5844 5844 5838 5816 5837 5831 5820 5836 5838 5846 5854 5857 5855 5851 5845 5836 5830 5822 5815 5810 5804 5798 5790 5785 5781 5777 5773 5769 5765 5762 5759 5756 5754 5753 5753 5753
5819 5836 5850 5853 5841 5846 5843 5822 5804 5802 5805 5810 5845 5836 5833 5854 5861 5858 5858 5857 5856 5852 5844 5835 5826 5819 5814 5809 5804 5798 5790 5784 5781 5777 5774 5770 5767 5763 5760 5757 5755 5753 5753 5753
5801 5807 5835 5844 5837 5832 5832 5826 5801 5791 5796 5806 5829 5829 5846 5868 5870 5869 5865 5861 5856 5850 5844 5835 5828 5821 5815 5810 5804 5798 5790 5785 5782 5778 5774 5771 5768 5765 5762 5760 5758 5756 5755 5755
5813 5813 5844 5848 5850 5843 5829 5827 5840 5827 5821 5811 5816 5829 5850 5865 5862 5862 5861 5857 5852 5848 5843 5836 5829 5823 5817 5811 5805 5799 5792 5786 5782 5778 5775 5771 5768 5765 5763 5761 5759 5758 5757 5756
5828 5815 5837 5845 5845 5844 5844 5841 5831 5817 5799 5792 5807 5816 5824 5839 5846 5852 5853 5851 5850 5847 5842 5837 5830 5825 5819 5813 5806 5800 5793 5787 5783 5779 5775 5772 5768 5766 5763 5761 5758 5756 5756 5755
5828 5813 5823 5831 5820 5821 5826 5826 5826 5824 5821 5801 5788 5796 5838 5840 5847 5850 5851 5852 5848 5845 5842 5836 5829 5825 5819 5813 5806 5799 5792 5787 5782 5778 5774 5771 5768 5766 5763 5760 5757 5755 5753 5752
5824 5815 5808 5821 5839 5843 5837 5828 5824 5803 5803 5813 5804 5806 5851 5853 5857 5856 5852 5848 5846 5842 5840 5836 5829 5821 5816 5811 5805 5798 5792 5787 5782 5778 5774 5769 5767 5764 5760 5758 5756 5754 5751 5749
5817 5804 5786 5796 5813 5827 5825 5832 5832 5829 5819 5809 5804 5810 5851 5855 5857 5856 5851 5846 5842 5839 5836 5833 5826 5819 5812 5808 5804 5798 5792 5787 5782 5777 5772 5767 5763 5760 5757 5755 5753 5751 5748 5746
5816 5798 5790 5788 5803 5819 5813 5820 5828 5825 5811 5810 5816 5817 5835 5842 5843 5847 5846 5843 5840 5835 5832 5826 5820 5816 5811 5806 5801 5796 5791 5788 5782 5775 5769 5764 5761 5758 5755 5752 5749 5747 5745 5743
5803 5786 5793 5805 5821 5827 5823 5820 5823 5820 5822 5816 5824 5828 5835 5841 5842 5841 5841 5838 5833 5829 5826 5822 5817 5812 5807 5803 5798 5794 5789 5785 5780 5773 5766 5761 5758 5755 5752 5748 5745 5742 5740 5738
5790 5780 5785 5789 5809 5818 5818 5824 5825 5823 5826 5826 5828 5828 5845 5845 5844 5837 5835 5831 5825 5822 5821 5818 5814 5808 5803 5799 5795 5791 5786 5781 5776 5769 5763 5759 5755 5750 5747 5743 5740 5737 5734 5732
5778 5769 5767 5773 5795 5801 5795 5816 5820 5823 5830 5828 5820 5828 5842 5834 5829 5827 5828 5827 5822 5819 5817 5814 5809 5805 5798 5795 5792 5787 5782 5778 5771 5765 5760 5755 5750 5745 5741 5739 5734 5731 5728 5726
5769 5762 5763 5766 5774 5759 5798 5834 5832 5825 5828 5836 5832 5831 5832 5826 5826 5827 5827 5823 5818 5815 5812 5808 5806 5802 5798 5794 5790 5785 5779 5773 5766 5760 5755 5750 5745 5740 5736 5732 5728 5724 5722 5719
5771 5759 5754 5757 5758 5771 5799 5820 5825 5816 5813 5829 5826 5824 5825 5824 5819 5814 5819 5819 5815 5811 5808 5804 5802 5798 5795 5790 5786 5779 5773 5767 5760 5754 5749 5745 5740 5735 5730 5726 5721 5718 5715 5711
5764 5759 5748 5751 5746 5751 5784 5817 5831 5818 5792 5815 5818 5814 5813 5813 5796 5795 5809 5811 5808 5805 5802 5798 5795 5791 5785 5783 5780 5772 5764 5758 5752 5748 5743 5739 5735 5729 5723 5719 5715 5711 5707 5703
5740 5740 5738 5742 5745 5760 5787 5809 5813 5778 5775 5802 5807 5807 5804 5799 5795 5798 5803 5800 5799 5797 5793 5791 5786 5780 5776 5774 5770 5762 5756 5749 5745 5742 5737 5732 5727 5722 5717 5712 5708 5704 5700 5696
5736 5734 5733 5739 5737 5745 5781 5790 5777 5772 5789 5795 5796 5798 5796 5793 5793 5793 5790 5788 5787 5785 5782 5780 5774 5769 5767 5764 5759 5752 5746 5743 5739 5734 5729 5724 5719 5716 5710 5704 5700 5697 5693 5688
5742 5744 5747 5745 5744 5757 5771 5770 5775 5782 5779 5783 5786 5788 5787 5784 5782 5781 5778 5777 5775 5773 5770 5768 5764 5759 5756 5753 5749 5742 5738 5736 5730 5724 5719 5714 5710 5705 5700 5696 5692 5688 5685 5681
5737 5747 5743 5737 5742 5750 5757 5763 5766 5771 5772 5776 5778 5779 5778 5773 5771 5768 5766 5764 5762 5761 5759 5757 5753 5748 5744 5742 5739 5734 5731 5727 5721 5714 5709 5705 5699 5694 5689 5685 5682 5677 5674 5672
5725 5732 5732 5727 5733 5738 5743 5749 5754 5760 5765 5766 5767 5768 5767 5764 5760 5757 5754 5752 5751 5750 5749 5746 5741 5736 5733 5731 5727 5725 5721 5717 5710 5705 5700 5695 5690 5682 5675 5669 5664 5662 5656 5656
5716 5717 5716 5715 5726 5727 5728 5739 5746 5747 5749 5752 5753 5754 5755 5753 5749 5746 5743 5742 5740 5738 5736 5734 5730 5726 5723 5720 5716 5714 5711 5707 5701 5696 5691 5687 5681 5674 5667 5660 5652 5646 5644 5642